Regional Weather Roundup
Issued by NWS Goodland, KS

Home | Current Version | Previous Version | Graphics & Text | Print | Product List | Glossary On
Versions: 1 2 3 4 5 6 7 8 9 10 11 12 13 14 15 16 17 18 19 20 21 22 23 24 25 26 27 28 29 30 31 32 33 34 35 36 37 38 39 40 41 42 43 44 45 46 47 48 49 50
000
ASUS43 KGLD 290159
RWRGLD

GOODLAND FORECAST AREA HOURLY WEATHER ROUNDUP
NATIONAL WEATHER SERVICE GOODLAND KS
800 PM MDT FRI AUG 28 2015

...OFFICIAL OBSERVATIONS...

CITY           SKY/WX    TMP DP  RH WIND       PRES   REMARKS
GOODLAND KS    CLEAR     72  49  44 NE5       30.09R
HILL CITY KS   CLEAR     75  62  64 NE9       30.02R
IMPERIAL NEB   CLEAR     73  59  61 NE3       30.08R
MCCOOK NEB     CLEAR     72  62  71 MISG      30.03R
AKRON CO       CLEAR     70  39  32 NE8       30.18R
BURLINGTON CO  CLEAR     71  45  39 NE8       30.13R
LIMON CO       CLEAR     63  47  55 N6        30.23R
$$

...UNOFFICIAL OBSERVATIONS...

CITY           SKY/WX    TMP DP  RH WIND       PRES   REMARKS
COLBY KS       CLEAR     75  61  60 N6        30.07R
GOVE KS          N/A     79  32  18 MISG        N/A
LENORA KS        N/A     73  32  22 MISG        N/A
NORTON KS      CLEAR     70  59  68 NE3       30.01R
SHARON SPRINGS   N/A     75  53  45 NE5         N/A
TRENTON NEB      N/A     72  32  23 NE7         N/A
YUMA CO          N/A     75  48  38 CALM        N/A
$$


USA.gov is the U.S. government's official web portal to all federal, state and local government web resources and services.